Location: ???????
(55.5931°N, 39.3286°E)
Time: 14:01:18
(UTC+00:00)

Sich 1 - Pass Details

Date: 14 April 2024
Orbit: 585 x 612 km, 82.5° (Epoch: 24 May)

Event Time Altitude Azimuth Distance (km) Brightness Sun altitude
Rises 00:15:56 0° 346° (NNW) 2,828 6.9 -15.6°
Reaches altitude 10° 00:18:09 10° 345° (NNW) 1,922 6.0 -15.4°
Maximum altitude 00:22:22 74° 262° (W) 615 2.9 -15.0°
Enters shadow 00:26:15 12° 177° (S) 1,777 5.0 -14.6°
